TimeMDT,TemperatureF,Dew PointF,Humidity,Sea Level PressureIn,VisibilityMPH,Wind Direction,Wind SpeedMPH,Gust SpeedMPH,PrecipitationIn,Events,Conditions,WindDirDegrees,DateUTC
12:15 AM,61.5,48.9,63,30.38,10.0,NNW,9.2,-,N/A,,Clear,340,2013-07-18 06:15:00
12:35 AM,60.3,49.1,67,30.38,10.0,NNW,8.1,-,N/A,,Clear,340,2013-07-18 06:35:00
12:55 AM,59.9,49.1,67,30.38,10.0,North,8.1,-,N/A,,Clear,350,2013-07-18 06:55:00
1:15 AM,59.4,49.1,69,30.38,10.0,North,9.2,-,N/A,,Clear,360,2013-07-18 07:15:00
1:35 AM,58.8,49.6,72,30.38,10.0,North,9.2,-,N/A,,Scattered Clouds,350,2013-07-18 07:35:00
1:55 AM,57.9,49.5,73,30.38,10.0,NW,4.6,-,N/A,,Clear,320,2013-07-18 07:55:00
2:15 AM,57.7,49.1,73,30.39,10.0,Calm,Calm,-,N/A,,Clear,0,2013-07-18 08:15:00
2:35 AM,57.7,48.6,71,30.39,10.0,Calm,Calm,-,N/A,,Clear,0,2013-07-18 08:35:00
2:55 AM,57.9,48.6,71,30.39,10.0,Calm,Calm,-,N/A,,Clear,0,2013-07-18 08:55:00
3:15 AM,56.7,48.7,75,30.38,10.0,Calm,Calm,-,N/A,,Clear,0,2013-07-18 09:15:00
3:35 AM,56.8,49.1,75,30.39,10.0,East,3.5,-,N/A,,Clear,80,2013-07-18 09:35:00
3:55 AM,55.4,48.9,79,30.39,10.0,Calm,Calm,-,N/A,,Clear,0,2013-07-18 09:55:00
4:15 AM,55.6,49.1,79,30.38,10.0,Calm,Calm,-,N/A,,Clear,0,2013-07-18 10:15:00
4:35 AM,54.5,48.6,80,30.39,10.0,NW,3.5,-,N/A,,Clear,320,2013-07-18 10:35:00
4:55 AM,53.6,48.4,82,30.40,10.0,NNW,6.9,-,N/A,,Clear,340,2013-07-18 10:55:00
5:15 AM,53.6,48.4,82,30.40,10.0,NNW,8.1,-,N/A,,Clear,340,2013-07-18 11:15:00
5:35 AM,53.2,48.4,84,30.40,10.0,NNW,6.9,-,N/A,,Mostly Cloudy,340,2013-07-18 11:35:00
5:55 AM,53.2,48.2,83,30.40,10.0,NNW,8.1,-,N/A,,Mostly Cloudy,330,2013-07-18 11:55:00
6:15 AM,53.1,48.2,84,30.40,10.0,NNW,9.2,-,N/A,,Mostly Cloudy,340,2013-07-18 12:15:00
6:35 AM,53.1,48.0,83,30.40,10.0,North,8.1,-,N/A,,Overcast,350,2013-07-18 12:35:00
6:55 AM,53.8,48.0,81,30.40,10.0,NNW,5.8,-,N/A,,Mostly Cloudy,340,2013-07-18 12:55:00
7:15 AM,54.5,48.2,79,30.42,10.0,North,8.1,-,N/A,,Mostly Cloudy,350,2013-07-18 13:15:00
7:35 AM,55.0,48.4,78,30.42,10.0,NNW,6.9,-,N/A,,Overcast,340,2013-07-18 13:35:00
7:55 AM,56.7,48.6,74,30.42,10.0,North,8.1,-,N/A,,Scattered Clouds,350,2013-07-18 13:55:00
8:15 AM,60.6,49.3,66,30.42,10.0,North,8.1,-,N/A,,Clear,360,2013-07-18 14:15:00
8:35 AM,62.8,49.1,61,30.42,10.0,North,10.4,-,N/A,,Clear,360,2013-07-18 14:35:00
8:55 AM,64.9,49.3,57,30.42,10.0,NNW,6.9,-,N/A,,Clear,340,2013-07-18 14:55:00
9:15 AM,67.6,48.9,51,30.42,10.0,NNW,5.8,-,N/A,,Clear,340,2013-07-18 15:15:00
9:35 AM,69.8,48.0,46,30.42,10.0,Calm,Calm,-,N/A,,Clear,0,2013-07-18 15:35:00
9:55 AM,71.2,46.2,41,30.41,10.0,Calm,Calm,-,N/A,,Clear,0,2013-07-18 15:55:00
10:15 AM,74.3,45.5,36,30.41,10.0,Calm,Calm,-,N/A,,Clear,0,2013-07-18 16:15:00
10:35 AM,76.1,44.8,33,30.40,10.0,SSW,3.5,-,N/A,,Clear,210,2013-07-18 16:35:00
10:55 AM,77.0,43.3,30,30.40,10.0,Calm,Calm,-,N/A,,Clear,0,2013-07-18 16:55:00
11:15 AM,78.1,43.5,29,30.40,10.0,ESE,3.5,-,N/A,,Clear,110,2013-07-18 17:15:00
11:35 AM,79.0,43.5,28,30.40,10.0,West,4.6,-,N/A,,Clear,280,2013-07-18 17:35:00
11:55 AM,80.1,42.8,27,30.40,10.0,WNW,4.6,-,N/A,,Scattered Clouds,300,2013-07-18 17:55:00
12:15 PM,79.9,42.1,26,30.39,10.0,WSW,5.8,-,N/A,,Mostly Cloudy,250,2013-07-18 18:15:00
12:35 PM,78.8,41.7,27,30.39,10.0,Calm,Calm,-,N/A,,Mostly Cloudy,0,2013-07-18 18:35:00
12:55 PM,80.2,39.9,24,30.38,10.0,NNW,9.2,-,N/A,,Mostly Cloudy,330,2013-07-18 18:55:00
1:15 PM,82.0,32.0,16,30.38,10.0,Calm,Calm,-,N/A,,Scattered Clouds,0,2013-07-18 19:15:00
1:35 PM,84.6,27.5,13,30.37,10.0,NNW,13.8,23.0,N/A,,Clear,330,2013-07-18 19:35:00
1:55 PM,85.1,26.2,12,30.37,10.0,North,13.8,24.2,N/A,,Clear,350,2013-07-18 19:55:00
2:15 PM,84.9,24.3,11,30.36,10.0,WNW,9.2,20.7,N/A,,Clear,290,2013-07-18 20:15:00
2:35 PM,85.6,25.9,11,30.35,10.0,North,11.5,19.6,N/A,,Clear,10,2013-07-18 20:35:00
2:55 PM,-9999,-9999,N/A,30.34,10.0,NNW,18.4,24.2,N/A,,Clear,340,2013-07-18 20:55:00
3:15 PM,-9999,-9999,N/A,30.34,10.0,WNW,5.8,24.2,N/A,,Clear,290,2013-07-18 21:15:00
4:15 PM,-9999,-9999,N/A,30.32,10.0,WNW,12.7,23.0,N/A,,Clear,290,2013-07-18 22:15:00
4:35 PM,-9999,-9999,N/A,30.32,10.0,NNW,11.5,17.3,N/A,,Scattered Clouds,330,2013-07-18 22:35:00
4:55 PM,-9999,-9999,N/A,30.32,10.0,NNW,15.0,21.9,N/A,,Scattered Clouds,340,2013-07-18 22:55:00
5:15 PM,85.8,29.7,13,30.32,10.0,NNW,16.1,19.6,N/A,,Clear,330,2013-07-18 23:15:00
5:35 PM,84.2,30.0,14,30.31,10.0,NNW,15.0,21.9,N/A,,Clear,330,2013-07-18 23:35:00
5:55 PM,83.7,29.3,14,30.31,10.0,NNW,11.5,21.9,N/A,,Clear,340,2013-07-18 23:55:00
6:15 PM,84.4,29.5,14,30.31,10.0,North,18.4,21.9,N/A,,Clear,350,2013-07-19 00:15:00
6:35 PM,-9999,-9999,N/A,30.30,10.0,NNW,18.4,-,N/A,,Clear,340,2013-07-19 00:35:00
6:55 PM,-9999,-9999,N/A,30.30,10.0,North,6.9,17.3,N/A,,Clear,360,2013-07-19 00:55:00
7:15 PM,-9999,-9999,N/A,30.30,10.0,North,5.8,-,N/A,,Clear,360,2013-07-19 01:15:00
7:35 PM,81.7,28.0,14,30.31,10.0,North,10.4,19.6,N/A,,Clear,350,2013-07-19 01:35:00
7:55 PM,80.4,27.7,15,30.31,10.0,North,12.7,-,N/A,,Clear,350,2013-07-19 01:55:00
8:15 PM,79.0,29.8,17,30.32,10.0,NNW,11.5,-,N/A,,Clear,340,2013-07-19 02:15:00
8:35 PM,77.0,31.5,19,30.32,10.0,NNW,6.9,-,N/A,,Clear,330,2013-07-19 02:35:00
8:55 PM,74.1,33.6,23,30.32,10.0,NW,8.1,-,N/A,,Clear,320,2013-07-19 02:55:00
9:15 PM,72.1,34.7,25,30.32,10.0,North,10.4,-,N/A,,Clear,350,2013-07-19 03:15:00
9:35 PM,71.2,35.1,27,30.34,10.0,NNW,10.4,-,N/A,,Clear,340,2013-07-19 03:35:00
9:55 PM,69.8,35.8,29,30.34,10.0,NW,9.2,-,N/A,,Clear,320,2013-07-19 03:55:00
10:15 PM,69.1,35.4,29,30.34,10.0,NNW,11.5,-,N/A,,Clear,330,2013-07-19 04:15:00
10:35 PM,68.4,35.1,29,30.34,10.0,NNW,11.5,-,N/A,,Clear,330,2013-07-19 04:35:00
10:55 PM,67.5,34.2,29,30.34,10.0,NNW,9.2,-,N/A,,Clear,340,2013-07-19 04:55:00
11:15 PM,65.3,34.2,31,30.35,10.0,NNW,10.4,-,N/A,,Clear,340,2013-07-19 05:15:00
11:35 PM,64.8,33.8,32,30.35,10.0,NNW,13.8,-,N/A,,Clear,330,2013-07-19 05:35:00
11:55 PM,64.0,34.2,33,30.35,10.0,NNW,13.8,-,N/A,,Clear,330,2013-07-19 05:55:00